iso_date,epoch_date,Year,Hour,Min,DOY,POS_DOY,Lat,Lon,BP,Ts,Ta,has_bp,has_ts,has_ta,BuoyID,Buoy_Type,Buoy_Owner,Logistics,Hemisphere
2014-01-09T22:00:28Z,1389304829,2014,22,0,9.917,9.875,79.576,132.9956,1017.1,-13.64,-999.0,yes,yes,no,300234060375030,SVP-B,unknown,unknown,North
2014-01-09T22:59:31Z,1389308371,2014,23,0,9.958,9.875,79.576,132.9956,1016.7,-13.62,-999.0,yes,yes,no,300234060375030,SVP-B,unknown,unknown,North
2014-01-10T00:00:00Z,1389312000,2014,0,0,10.0,10.0,79.5676,132.9882,1016.7,-13.57,-999.0,yes,yes,no,300234060375030,SVP-B,unknown,unknown,North
2014-01-10T01:00:28Z,1389315629,2014,1,0,10.042,10.0,79.5676,132.9882,1016.5,-13.55,-999.0,yes,yes,no,300234060375030,SVP-B,unknown,unknown,North
2014-01-10T01:59:31Z,1389319171,2014,2,0,10.083,10.0,79.5676,132.9882,1016.7,-13.54,-999.0,yes,yes,no,300234060375030,SVP-B,unknown,unknown,North
2014-01-10T03:00:00Z,1389322800,2014,3,0,10.125,10.125,79.5608,132.9868,1016.6,-13.56,-999.0,yes,yes,no,300234060375030,SVP-B,unknown,unknown,North
2014-01-10T04:00:28Z,1389326429,2014,4,0,10.167,10.125,79.5608,132.9868,1016.2,-13.57,-999.0,yes,yes,no,300234060375030,SVP-B,unknown,unknown,North
2014-01-10T04:59:31Z,1389329971,2014,5,0,10.208,10.125,79.5608,132.9868,1016.5,-13.61,-999.0,yes,yes,no,300234060375030,SVP-B,unknown,unknown,North
2014-01-10T06:00:00Z,1389333600,2014,6,0,10.25,10.25,79.5542,132.9914,1017.1,-13.68,-999.0,yes,yes,no,300234060375030,SVP-B,unknown,unknown,North
2014-01-10T07:00:28Z,1389337229,2014,7,0,10.292,10.25,79.5542,132.9914,1017.5,-13.77,-999.0,yes,yes,no,300234060375030,SVP-B,unknown,unknown,North
2014-01-10T07:59:31Z,1389340771,2014,8,0,10.333,10.25,79.5542,132.9914,1017.9,-13.77,-999.0,yes,yes,no,300234060375030,SVP-B,unknown,unknown,North
2014-01-10T09:00:00Z,1389344400,2014,9,0,10.375,10.375,79.5458,133.0032,1018.1,-13.72,-999.0,yes,yes,no,300234060375030,SVP-B,unknown,unknown,North
2014-01-10T10:00:28Z,1389348029,2014,10,0,10.417,10.375,79.5458,133.0032,1018.5,-13.67,-999.0,yes,yes,no,300234060375030,SVP-B,unknown,unknown,North
2014-01-10T10:59:31Z,1389351571,2014,11,0,10.458,10.375,79.5458,133.0032,1019.2,-13.7,-999.0,yes,yes,no,300234060375030,SVP-B,unknown,unknown,North
2014-01-10T12:00:00Z,1389355200,2014,12,0,10.5,10.5,79.5376,133.0194,1019.9,-13.74,-999.0,yes,yes,no,300234060375030,SVP-B,unknown,unknown,North
2014-01-10T13:00:28Z,1389358829,2014,13,0,10.542,10.5,79.5376,133.0194,1020.3,-13.78,-999.0,yes,yes,no,300234060375030,SVP-B,unknown,unknown,North
2014-01-10T13:59:31Z,1389362371,2014,14,0,10.583,10.5,79.5376,133.0194,1021.1,-13.82,-999.0,yes,yes,no,300234060375030,SVP-B,unknown,unknown,North
2014-01-10T15:00:00Z,1389366000,2014,15,0,10.625,10.625,79.5332,133.0388,1021.3,-13.88,-999.0,yes,yes,no,300234060375030,SVP-B,unknown,unknown,North
2014-01-10T16:00:28Z,1389369629,2014,16,0,10.667,10.625,79.5332,133.0388,1021.6,-13.95,-999.0,yes,yes,no,300234060375030,SVP-B,unknown,unknown,North
2014-01-10T16:59:31Z,1389373171,2014,17,0,10.708,10.625,79.5332,133.0388,1022.2,-14.04,-999.0,yes,yes,no,300234060375030,SVP-B,unknown,unknown,North
2014-01-10T18:00:00Z,1389376800,2014,18,0,10.75,10.75,79.5316,133.07,1022.7,-14.11,-999.0,yes,yes,no,300234060375030,SVP-B,unknown,unknown,North
2014-01-10T19:00:28Z,1389380429,2014,19,0,10.792,10.75,79.5316,133.07,1022.9,-14.21,-999.0,yes,yes,no,300234060375030,SVP-B,unknown,unknown,North
2014-01-10T19:59:31Z,1389383971,2014,20,0,10.833,10.75,79.5316,133.07,1023.6,-14.29,-999.0,yes,yes,no,300234060375030,SVP-B,unknown,unknown,North
2014-01-10T21:00:00Z,1389387600,2014,21,0,10.875,10.875,79.5288,133.1134,1024.0,-14.37,-999.0,yes,yes,no,300234060375030,SVP-B,unknown,unknown,North
2014-01-10T22:00:28Z,1389391229,2014,22,0,10.917,10.875,79.5288,133.1134,1024.6,-14.45,-999.0,yes,yes,no,300234060375030,SVP-B,unknown,unknown,North
2014-01-10T22:59:31Z,1389394771,2014,23,0,10.958,10.875,79.5288,133.1134,1025.0,-14.53,-999.0,yes,yes,no,300234060375030,SVP-B,unknown,unknown,North
2014-01-11T00:00:00Z,1389398400,2014,0,0,11.0,11.0,79.5262,133.15,1025.1,-14.61,-999.0,yes,yes,no,300234060375030,SVP-B,unknown,unknown,North
2014-01-11T01:00:28Z,1389402029,2014,1,0,11.042,11.0,79.5262,133.15,1025.3,-14.68,-999.0,yes,yes,no,300234060375030,SVP-B,unknown,unknown,North
2014-01-11T01:59:31Z,1389405571,2014,2,0,11.083,11.0,79.5262,133.15,1025.5,-14.76,-999.0,yes,yes,no,300234060375030,SVP-B,unknown,unknown,North
2014-01-11T03:00:00Z,1389409200,2014,3,0,11.125,11.125,79.5262,133.1798,1025.6,-14.82,-999.0,yes,yes,no,300234060375030,SVP-B,unknown,unknown,North
2014-01-11T04:00:28Z,1389412829,2014,4,0,11.167,11.125,79.5262,133.1798,1025.7,-14.88,-999.0,yes,yes,no,300234060375030,SVP-B,unknown,unknown,North
2014-01-11T04:59:31Z,1389416371,2014,5,0,11.208,11.125,79.5262,133.1798,1026.0,-14.95,-999.0,yes,yes,no,300234060375030,SVP-B,unknown,unknown,North
2014-01-11T06:00:00Z,1389420000,2014,6,0,11.25,11.25,79.5284,133.2186,1026.0,-14.99,-999.0,yes,yes,no,300234060375030,SVP-B,unknown,unknown,North
2014-01-11T07:00:28Z,1389423629,2014,7,0,11.292,11.25,79.5284,133.2186,1026.0,-15.04,-999.0,yes,yes,no,300234060375030,SVP-B,unknown,unknown,North
2014-01-11T07:59:31Z,1389427171,2014,8,0,11.333,11.25,79.5284,133.2186,1026.5,-15.08,-999.0,yes,yes,no,300234060375030,SVP-B,unknown,unknown,North
2014-01-11T09:00:00Z,1389430800,2014,9,0,11.375,11.375,79.53,133.2722,1026.7,-15.12,-999.0,yes,yes,no,300234060375030,SVP-B,unknown,unknown,North
2014-01-11T10:00:28Z,1389434429,2014,10,0,11.417,11.375,79.53,133.2722,1026.7,-15.16,-999.0,yes,yes,no,300234060375030,SVP-B,unknown,unknown,North
2014-01-11T10:59:31Z,1389437971,2014,11,0,11.458,11.375,79.53,133.2722,1026.5,-15.21,-999.0,yes,yes,no,300234060375030,SVP-B,unknown,unknown,North
2014-01-11T12:00:00Z,1389441600,2014,12,0,11.5,11.5,79.5296,133.3178,1026.3,-15.26,-999.0,yes,yes,no,300234060375030,SVP-B,unknown,unknown,North
2014-01-11T13:00:28Z,1389445229,2014,13,0,11.542,11.5,79.5296,133.3178,1026.0,-15.3,-999.0,yes,yes,no,300234060375030,SVP-B,unknown,unknown,North
2014-01-11T13:59:31Z,1389448771,2014,14,0,11.583,11.5,79.5296,133.3178,1025.9,-15.35,-999.0,yes,yes,no,300234060375030,SVP-B,unknown,unknown,North
2014-01-11T15:00:00Z,1389452400,2014,15,0,11.625,11.625,79.5304,133.3572,1025.8,-15.39,-999.0,yes,yes,no,300234060375030,SVP-B,unknown,unknown,North
2014-01-11T16:00:28Z,1389456029,2014,16,0,11.667,11.625,79.5304,133.3572,1025.5,-15.39,-999.0,yes,yes,no,300234060375030,SVP-B,unknown,unknown,North
2014-01-11T16:59:31Z,1389459571,2014,17,0,11.708,11.625,79.5304,133.3572,1025.4,-15.43,-999.0,yes,yes,no,300234060375030,SVP-B,unknown,unknown,North
2014-01-11T18:00:00Z,1389463200,2014,18,0,11.75,11.75,79.534,133.4052,1025.2,-15.48,-999.0,yes,yes,no,300234060375030,SVP-B,unknown,unknown,North
2014-01-11T19:00:28Z,1389466829,2014,19,0,11.792,11.75,79.534,133.4052,1024.9,-15.5,-999.0,yes,yes,no,300234060375030,SVP-B,unknown,unknown,North
2014-01-11T19:59:31Z,1389470371,2014,20,0,11.833,11.75,79.534,133.4052,1024.8,-15.53,-999.0,yes,yes,no,300234060375030,SVP-B,unknown,unknown,North
2014-01-11T21:00:00Z,1389474000,2014,21,0,11.875,11.875,79.538,133.4724,1024.7,-15.54,-999.0,yes,yes,no,300234060375030,SVP-B,unknown,unknown,North
2014-01-11T22:00:28Z,1389477629,2014,22,0,11.917,11.875,79.538,133.4724,1024.4,-15.55,-999.0,yes,yes,no,300234060375030,SVP-B,unknown,unknown,North
2014-01-11T22:59:31Z,1389481171,2014,23,0,11.958,11.875,79.538,133.4724,1024.4,-15.56,-999.0,yes,yes,no,300234060375030,SVP-B,unknown,unknown,North
2014-01-12T00:00:00Z,1389484800,2014,0,0,12.0,12.0,79.5398,133.538,1024.3,-15.58,-999.0,yes,yes,no,300234060375030,SVP-B,unknown,unknown,North
2014-01-12T01:00:28Z,1389488429,2014,1,0,12.042,12.0,79.5398,133.538,1024.1,-15.59,-999.0,yes,yes,no,300234060375030,SVP-B,unknown,unknown,North
2014-01-12T01:59:31Z,1389491971,2014,2,0,12.083,12.0,79.5398,133.538,1023.9,-15.6,-999.0,yes,yes,no,300234060375030,SVP-B,unknown,unknown,North
2014-01-12T03:00:00Z,1389495600,2014,3,0,12.125,12.125,79.5422,133.5938,1023.7,-15.61,-999.0,yes,yes,no,300234060375030,SVP-B,unknown,unknown,North
2014-01-12T04:00:28Z,1389499229,2014,4,0,12.167,12.125,79.5422,133.5938,1023.3,-15.61,-999.0,yes,yes,no,300234060375030,SVP-B,unknown,unknown,North
2014-01-12T04:59:31Z,1389502771,2014,5,0,12.208,12.125,79.5422,133.5938,1023.2,-15.61,-999.0,yes,yes,no,300234060375030,SVP-B,unknown,unknown,North
2014-01-12T06:00:00Z,1389506400,2014,6,0,12.25,12.25,79.5464,133.652,1023.0,-15.62,-999.0,yes,yes,no,300234060375030,SVP-B,unknown,unknown,North
2014-01-12T07:00:28Z,1389510029,2014,7,0,12.292,12.25,79.5464,133.652,1023.3,-15.63,-999.0,yes,yes,no,300234060375030,SVP-B,unknown,unknown,North
2014-01-12T07:59:31Z,1389513571,2014,8,0,12.333,12.25,79.5464,133.652,1023.4,-15.65,-999.0,yes,yes,no,300234060375030,SVP-B,unknown,unknown,North
2014-01-12T09:00:00Z,1389517200,2014,9,0,12.375,12.375,79.5496,133.7194,1023.5,-15.68,-999.0,yes,yes,no,300234060375030,SVP-B,unknown,unknown,North
2014-01-12T10:00:28Z,1389520829,2014,10,0,12.417,12.375,79.5496,133.7194,1023.8,-15.71,-999.0,yes,yes,no,300234060375030,SVP-B,unknown,unknown,North
2014-01-12T10:59:31Z,1389524371,2014,11,0,12.458,12.375,79.5496,133.7194,1023.7,-15.71,-999.0,yes,yes,no,300234060375030,SVP-B,unknown,unknown,North
2014-01-12T12:00:00Z,1389528000,2014,12,0,12.5,12.5,79.5492,133.7866,1023.5,-15.74,-999.0,yes,yes,no,300234060375030,SVP-B,unknown,unknown,North
2014-01-12T13:00:28Z,1389531629,2014,13,0,12.542,12.5,79.5492,133.7866,1023.7,-15.76,-999.0,yes,yes,no,300234060375030,SVP-B,unknown,unknown,North
2014-01-12T13:59:31Z,1389535171,2014,14,0,12.583,12.5,79.5492,133.7866,1023.8,-15.79,-999.0,yes,yes,no,300234060375030,SVP-B,unknown,unknown,North
2014-01-12T15:00:00Z,1389538800,2014,15,0,12.625,12.625,79.5472,133.8384,1023.9,-15.82,-999.0,yes,yes,no,300234060375030,SVP-B,unknown,unknown,North
2014-01-12T16:00:28Z,1389542429,2014,16,0,12.667,12.625,79.5472,133.8384,1023.7,-15.85,-999.0,yes,yes,no,300234060375030,SVP-B,unknown,unknown,North
2014-01-12T16:59:31Z,1389545971,2014,17,0,12.708,12.625,79.5472,133.8384,1023.8,-15.88,-999.0,yes,yes,no,300234060375030,SVP-B,unknown,unknown,North
2014-01-12T18:00:00Z,1389549600,2014,18,0,12.75,12.75,79.5458,133.8792,1024.1,-15.91,-999.0,yes,yes,no,300234060375030,SVP-B,unknown,unknown,North
2014-01-12T19:00:28Z,1389553229,2014,19,0,12.792,12.75,79.5458,133.8792,1024.4,-15.93,-999.0,yes,yes,no,300234060375030,SVP-B,unknown,unknown,North
2014-01-12T19:59:31Z,1389556771,2014,20,0,12.833,12.75,79.5458,133.8792,1024.4,-15.97,-999.0,yes,yes,no,300234060375030,SVP-B,unknown,unknown,North
2014-01-12T21:00:00Z,1389560400,2014,21,0,12.875,12.875,79.545,133.9238,1024.6,-16.01,-999.0,yes,yes,no,300234060375030,SVP-B,unknown,unknown,North
2014-01-12T22:00:28Z,1389564029,2014,22,0,12.917,12.875,79.545,133.9238,1025.0,-16.04,-999.0,yes,yes,no,300234060375030,SVP-B,unknown,unknown,North
2014-01-12T22:59:31Z,1389567571,2014,23,0,12.958,12.875,79.545,133.9238,1024.9,-16.07,-999.0,yes,yes,no,300234060375030,SVP-B,unknown,unknown,North
2014-01-13T00:00:00Z,1389571200,2014,0,0,13.0,13.0,79.541,133.974,1025.0,-16.11,-999.0,yes,yes,no,300234060375030,SVP-B,unknown,unknown,North
2014-01-13T01:00:28Z,1389574829,2014,1,0,13.042,13.0,79.541,133.974,1025.0,-16.16,-999.0,yes,yes,no,300234060375030,SVP-B,unknown,unknown,North
2014-01-13T01:59:31Z,1389578371,2014,2,0,13.083,13.0,79.541,133.974,1025.1,-16.19,-999.0,yes,yes,no,300234060375030,SVP-B,unknown,unknown,North
2014-01-13T03:00:00Z,1389582000,2014,3,0,13.125,13.125,79.5362,134.021,1025.3,-16.22,-999.0,yes,yes,no,300234060375030,SVP-B,unknown,unknown,North
2014-01-13T04:00:28Z,1389585629,2014,4,0,13.167,13.125,79.5362,134.021,1025.2,-16.26,-999.0,yes,yes,no,300234060375030,SVP-B,unknown,unknown,North
2014-01-13T04:59:31Z,1389589171,2014,5,0,13.208,13.125,79.5362,134.021,1025.3,-16.31,-999.0,yes,yes,no,300234060375030,SVP-B,unknown,unknown,North
2014-01-13T06:00:00Z,1389592800,2014,6,0,13.25,13.25,79.5342,134.0664,1025.1,-16.36,-999.0,yes,yes,no,300234060375030,SVP-B,unknown,unknown,North
2014-01-13T07:00:28Z,1389596429,2014,7,0,13.292,13.25,79.5342,134.0664,1024.6,-16.4,-999.0,yes,yes,no,300234060375030,SVP-B,unknown,unknown,North
2014-01-13T07:59:31Z,1389599971,2014,8,0,13.333,13.25,79.5342,134.0664,1024.8,-16.45,-999.0,yes,yes,no,300234060375030,SVP-B,unknown,unknown,North
2014-01-13T09:00:00Z,1389603600,2014,9,0,13.375,13.375,79.5336,134.1322,1024.6,-16.52,-999.0,yes,yes,no,300234060375030,SVP-B,unknown,unknown,North
2014-01-13T10:00:28Z,1389607229,2014,10,0,13.417,13.375,79.5336,134.1322,1024.3,-16.56,-999.0,yes,yes,no,300234060375030,SVP-B,unknown,unknown,North
2014-01-13T10:59:31Z,1389610771,2014,11,0,13.458,13.375,79.5336,134.1322,1024.1,-16.61,-999.0,yes,yes,no,300234060375030,SVP-B,unknown,unknown,North
2014-01-13T12:00:00Z,1389614400,2014,12,0,13.5,13.5,79.5282,134.2208,1023.8,-16.65,-999.0,yes,yes,no,300234060375030,SVP-B,unknown,unknown,North
2014-01-13T13:00:28Z,1389618029,2014,13,0,13.542,13.5,79.5282,134.2208,1023.1,-16.69,-999.0,yes,yes,no,300234060375030,SVP-B,unknown,unknown,North
2014-01-13T13:59:31Z,1389621571,2014,14,0,13.583,13.5,79.5282,134.2208,1022.5,-16.72,-999.0,yes,yes,no,300234060375030,SVP-B,unknown,unknown,North
2014-01-13T15:00:00Z,1389625200,2014,15,0,13.625,13.625,79.5202,134.316,1022.0,-16.76,-999.0,yes,yes,no,300234060375030,SVP-B,unknown,unknown,North
2014-01-13T16:00:28Z,1389628829,2014,16,0,13.667,13.625,79.5202,134.316,1021.5,-16.79,-999.0,yes,yes,no,300234060375030,SVP-B,unknown,unknown,North
2014-01-13T16:59:31Z,1389632371,2014,17,0,13.708,13.625,79.5202,134.316,1020.7,-16.84,-999.0,yes,yes,no,300234060375030,SVP-B,unknown,unknown,North
2014-01-13T18:00:00Z,1389636000,2014,18,0,13.75,13.75,79.5164,134.4102,1019.9,-16.88,-999.0,yes,yes,no,300234060375030,SVP-B,unknown,unknown,North
2014-01-13T19:00:28Z,1389639629,2014,19,0,13.792,13.75,79.5164,134.4102,1019.1,-16.92,-999.0,yes,yes,no,300234060375030,SVP-B,unknown,unknown,North
2014-01-13T19:59:31Z,1389643171,2014,20,0,13.833,13.75,79.5164,134.4102,1018.4,-16.97,-999.0,yes,yes,no,300234060375030,SVP-B,unknown,unknown,North
2014-01-13T21:00:00Z,1389646800,2014,21,0,13.875,13.875,79.5162,134.5342,1017.4,-17.02,-999.0,yes,yes,no,300234060375030,SVP-B,unknown,unknown,North
2014-01-13T22:00:28Z,1389650429,2014,22,0,13.917,13.875,79.5162,134.5342,1016.9,-17.06,-999.0,yes,yes,no,300234060375030,SVP-B,unknown,unknown,North
2014-01-13T22:59:31Z,1389653971,2014,23,0,13.958,13.875,79.5162,134.5342,1015.8,-17.12,-999.0,yes,yes,no,300234060375030,SVP-B,unknown,unknown,North
2014-01-14T00:00:00Z,1389657600,2014,0,0,14.0,14.0,79.5096,134.6948,1015.3,-17.18,-999.0,yes,yes,no,300234060375030,SVP-B,unknown,unknown,North
2014-01-14T01:00:28Z,1389661229,2014,1,0,14.042,14.0,79.5096,134.6948,1014.9,-17.25,-999.0,yes,yes,no,300234060375030,SVP-B,unknown,unknown,North
2014-01-14T01:59:31Z,1389664771,2014,2,0,14.083,14.0,79.5096,134.6948,1014.1,-17.29,-999.0,yes,yes,no,300234060375030,SVP-B,unknown,unknown,North
2014-01-14T03:00:00Z,1389668400,2014,3,0,14.125,14.125,79.5,134.8434,1013.4,-17.29,-999.0,yes,yes,no,300234060375030,SVP-B,unknown,unknown,North
2014-01-14T04:00:28Z,1389672029,2014,4,0,14.167,14.125,79.5,134.8434,1012.4,-17.27,-999.0,yes,yes,no,300234060375030,SVP-B,unknown,unknown,North
2014-01-14T04:59:31Z,1389675571,2014,5,0,14.208,14.125,79.5,134.8434,1011.7,-17.28,-999.0,yes,yes,no,300234060375030,SVP-B,unknown,unknown,North
2014-01-14T06:00:00Z,1389679200,2014,6,0,14.25,14.25,79.4968,134.9714,1011.3,-17.33,-999.0,yes,yes,no,300234060375030,SVP-B,unknown,unknown,North
2014-01-14T07:00:28Z,1389682829,2014,7,0,14.292,14.25,79.4968,134.9714,1011.0,-17.41,-999.0,yes,yes,no,300234060375030,SVP-B,unknown,unknown,North
2014-01-14T07:59:31Z,1389686371,2014,8,0,14.333,14.25,79.4968,134.9714,1010.7,-17.41,-999.0,yes,yes,no,300234060375030,SVP-B,unknown,unknown,North
2014-01-14T09:00:00Z,1389690000,2014,9,0,14.375,14.375,79.4976,135.1022,1010.7,-17.34,-999.0,yes,yes,no,300234060375030,SVP-B,unknown,unknown,North
2014-01-14T10:00:28Z,1389693629,2014,10,0,14.417,14.375,79.4976,135.1022,1010.3,-17.26,-999.0,yes,yes,no,300234060375030,SVP-B,unknown,unknown,North
2014-01-14T10:59:31Z,1389697171,2014,11,0,14.458,14.375,79.4976,135.1022,1009.8,-17.26,-999.0,yes,yes,no,300234060375030,SVP-B,unknown,unknown,North
2014-01-14T12:00:00Z,1389700800,2014,12,0,14.5,14.5,79.495,135.236,1009.1,-17.3,-999.0,yes,yes,no,300234060375030,SVP-B,unknown,unknown,North
2014-01-14T13:00:28Z,1389704429,2014,13,0,14.542,14.5,79.495,135.236,1008.8,-17.3,-999.0,yes,yes,no,300234060375030,SVP-B,unknown,unknown,North
2014-01-14T13:59:31Z,1389707971,2014,14,0,14.583,14.5,79.495,135.236,1008.4,-17.3,-999.0,yes,yes,no,300234060375030,SVP-B,unknown,unknown,North
2014-01-14T15:00:00Z,1389711600,2014,15,0,14.625,14.625,79.4892,135.3616,1008.3,-17.31,-999.0,yes,yes,no,300234060375030,SVP-B,unknown,unknown,North
2014-01-14T16:00:28Z,1389715229,2014,16,0,14.667,14.625,79.4892,135.3616,1008.2,-17.31,-999.0,yes,yes,no,300234060375030,SVP-B,unknown,unknown,North
2014-01-14T16:59:31Z,1389718771,2014,17,0,14.708,14.625,79.4892,135.3616,1007.9,-17.27,-999.0,yes,yes,no,300234060375030,SVP-B,unknown,unknown,North
2014-01-14T18:00:00Z,1389722400,2014,18,0,14.75,14.75,79.4864,135.4632,1007.7,-17.19,-999.0,yes,yes,no,300234060375030,SVP-B,unknown,unknown,North
2014-01-14T19:00:28Z,1389726029,2014,19,0,14.792,14.75,79.4864,135.4632,1007.4,-17.13,-999.0,yes,yes,no,300234060375030,SVP-B,unknown,unknown,North
2014-01-14T19:59:31Z,1389729571,2014,20,0,14.833,14.75,79.4864,135.4632,1007.1,-17.11,-999.0,yes,yes,no,300234060375030,SVP-B,unknown,unknown,North
2014-01-14T21:00:00Z,1389733200,2014,21,0,14.875,14.875,79.492,135.5588,1007.0,-17.05,-999.0,yes,yes,no,300234060375030,SVP-B,unknown,unknown,North
2014-01-14T22:00:28Z,1389736829,2014,22,0,14.917,14.875,79.492,135.5588,1007.0,-16.97,-999.0,yes,yes,no,300234060375030,SVP-B,unknown,unknown,North
2014-01-14T22:59:31Z,1389740371,2014,23,0,14.958,14.875,79.492,135.5588,1007.1,-16.88,-999.0,yes,yes,no,300234060375030,SVP-B,unknown,unknown,North
2014-01-15T00:00:00Z,1389744000,2014,0,0,15.0,15.0,79.4948,135.6472,1006.7,-16.74,-999.0,yes,yes,no,300234060375030,SVP-B,unknown,unknown,North
2014-01-15T01:00:28Z,1389747629,2014,1,0,15.042,15.0,79.4948,135.6472,1006.3,-16.59,-999.0,yes,yes,no,300234060375030,SVP-B,unknown,unknown,North
2014-01-15T01:59:31Z,1389751171,2014,2,0,15.083,15.0,79.4948,135.6472,1006.5,-16.47,-999.0,yes,yes,no,300234060375030,SVP-B,unknown,unknown,North
2014-01-15T03:00:00Z,1389754800,2014,3,0,15.125,15.125,79.4944,135.7036,1006.5,-16.36,-999.0,yes,yes,no,300234060375030,SVP-B,unknown,unknown,North
2014-01-15T04:00:28Z,1389758429,2014,4,0,15.167,15.125,79.4944,135.7036,1006.4,-16.26,-999.0,yes,yes,no,300234060375030,SVP-B,unknown,unknown,North
2014-01-15T04:59:31Z,1389761971,2014,5,0,15.208,15.125,79.4944,135.7036,1006.7,-16.15,-999.0,yes,yes,no,300234060375030,SVP-B,unknown,unknown,North
2014-01-15T06:00:00Z,1389765600,2014,6,0,15.25,15.25,79.4956,135.7314,1006.7,-16.04,-999.0,yes,yes,no,300234060375030,SVP-B,unknown,unknown,North
2014-01-15T07:00:28Z,1389769229,2014,7,0,15.292,15.25,79.4956,135.7314,1007.3,-15.93,-999.0,yes,yes,no,300234060375030,SVP-B,unknown,unknown,North
2014-01-15T07:59:31Z,1389772771,2014,8,0,15.333,15.25,79.4956,135.7314,1007.9,-15.82,-999.0,yes,yes,no,300234060375030,SVP-B,unknown,unknown,North
2014-01-15T09:00:00Z,1389776400,2014,9,0,15.375,15.375,79.5038,135.7576,1008.3,-15.74,-999.0,yes,yes,no,300234060375030,SVP-B,unknown,unknown,North
2014-01-15T10:00:28Z,1389780029,2014,10,0,15.417,15.375,79.5038,135.7576,1008.7,-15.66,-999.0,yes,yes,no,300234060375030,SVP-B,unknown,unknown,North
2014-01-15T10:59:31Z,1389783571,2014,11,0,15.458,15.375,79.5038,135.7576,1009.1,-15.6,-999.0,yes,yes,no,300234060375030,SVP-B,unknown,unknown,North
2014-01-15T12:00:00Z,1389787200,2014,12,0,15.5,15.5,79.5118,135.7928,1009.8,-15.54,-999.0,yes,yes,no,300234060375030,SVP-B,unknown,unknown,North
2014-01-15T13:00:28Z,1389790829,2014,13,0,15.542,15.5,79.5118,135.7928,1010.2,-15.46,-999.0,yes,yes,no,300234060375030,SVP-B,unknown,unknown,North
2014-01-15T13:59:31Z,1389794371,2014,14,0,15.583,15.5,79.5118,135.7928,1010.8,-15.39,-999.0,yes,yes,no,300234060375030,SVP-B,unknown,unknown,North
2014-01-15T15:00:00Z,1389798000,2014,15,0,15.625,15.625,79.5142,135.791,1011.4,-15.35,-999.0,yes,yes,no,300234060375030,SVP-B,unknown,unknown,North
2014-01-15T16:00:28Z,1389801629,2014,16,0,15.667,15.625,79.5142,135.791,1011.9,-15.35,-999.0,yes,yes,no,300234060375030,SVP-B,unknown,unknown,North
2014-01-15T16:59:31Z,1389805171,2014,17,0,15.708,15.625,79.5142,135.791,1012.4,-15.36,-999.0,yes,yes,no,300234060375030,SVP-B,unknown,unknown,North
2014-01-15T18:00:00Z,1389808800,2014,18,0,15.75,15.75,79.517,135.752,1012.9,-15.38,-999.0,yes,yes,no,300234060375030,SVP-B,unknown,unknown,North
2014-01-15T19:00:28Z,1389812429,2014,19,0,15.792,15.75,79.517,135.752,1013.3,-15.37,-999.0,yes,yes,no,300234060375030,SVP-B,unknown,unknown,North
2014-01-15T19:59:31Z,1389815971,2014,20,0,15.833,15.75,79.517,135.752,1013.8,-15.39,-999.0,yes,yes,no,300234060375030,SVP-B,unknown,unknown,North
2014-01-15T21:00:00Z,1389819600,2014,21,0,15.875,15.875,79.524,135.72,1014.4,-15.44,-999.0,yes,yes,no,300234060375030,SVP-B,unknown,unknown,North
2014-01-15T22:00:28Z,1389823229,2014,22,0,15.917,15.875,79.524,135.72,1015.2,-15.49,-999.0,yes,yes,no,300234060375030,SVP-B,unknown,unknown,North
2014-01-15T22:59:31Z,1389826771,2014,23,0,15.958,15.875,79.524,135.72,1015.8,-15.52,-999.0,yes,yes,no,300234060375030,SVP-B,unknown,unknown,North
2014-01-16T00:00:00Z,1389830400,2014,0,0,16.0,16.0,79.5318,135.7,1016.3,-15.5,-999.0,yes,yes,no,300234060375030,SVP-B,unknown,unknown,North
2014-01-16T01:00:28Z,1389834029,2014,1,0,16.042,16.0,79.5318,135.7,1016.7,-15.47,-999.0,yes,yes,no,300234060375030,SVP-B,unknown,unknown,North
2014-01-16T01:59:31Z,1389837571,2014,2,0,16.083,16.0,79.5318,135.7,1017.2,-15.45,-999.0,yes,yes,no,300234060375030,SVP-B,unknown,unknown,North
2014-01-16T03:00:00Z,1389841200,2014,3,0,16.125,16.125,79.5332,135.665,1017.7,-15.45,-999.0,yes,yes,no,300234060375030,SVP-B,unknown,unknown,North
2014-01-16T04:00:28Z,1389844829,2014,4,0,16.167,16.125,79.5332,135.665,1018.2,-15.45,-999.0,yes,yes,no,300234060375030,SVP-B,unknown,unknown,North
2014-01-16T04:59:31Z,1389848371,2014,5,0,16.208,16.125,79.5332,135.665,1018.5,-15.46,-999.0,yes,yes,no,300234060375030,SVP-B,unknown,unknown,North
2014-01-16T06:00:00Z,1389852000,2014,6,0,16.25,16.25,79.5354,135.6156,1019.1,-15.46,-999.0,yes,yes,no,300234060375030,SVP-B,unknown,unknown,North
2014-01-16T07:00:28Z,1389855629,2014,7,0,16.292,16.25,79.5354,135.6156,1019.8,-15.48,-999.0,yes,yes,no,300234060375030,SVP-B,unknown,unknown,North
2014-01-16T07:59:31Z,1389859171,2014,8,0,16.333,16.25,79.5354,135.6156,1020.5,-15.51,-999.0,yes,yes,no,300234060375030,SVP-B,unknown,unknown,North
2014-01-16T09:00:00Z,1389862800,2014,9,0,16.375,16.375,79.5404,135.58,1021.1,-15.54,-999.0,yes,yes,no,300234060375030,SVP-B,unknown,unknown,North
2014-01-16T10:00:28Z,1389866429,2014,10,0,16.417,16.375,79.5404,135.58,1021.5,-15.58,-999.0,yes,yes,no,300234060375030,SVP-B,unknown,unknown,North
2014-01-16T10:59:31Z,1389869971,2014,11,0,16.458,16.375,79.5404,135.58,1022.1,-15.62,-999.0,yes,yes,no,300234060375030,SVP-B,unknown,unknown,North
2014-01-16T12:00:00Z,1389873600,2014,12,0,16.5,16.5,79.545,135.5728,1022.5,-15.66,-999.0,yes,yes,no,300234060375030,SVP-B,unknown,unknown,North
2014-01-16T13:00:28Z,1389877229,2014,13,0,16.542,16.5,79.545,135.5728,1022.8,-15.7,-999.0,yes,yes,no,300234060375030,SVP-B,unknown,unknown,North
2014-01-16T13:59:31Z,1389880771,2014,14,0,16.583,16.5,79.545,135.5728,1022.9,-15.73,-999.0,yes,yes,no,300234060375030,SVP-B,unknown,unknown,North
2014-01-16T15:00:00Z,1389884400,2014,15,0,16.625,16.625,79.5444,135.5774,1023.2,-15.76,-999.0,yes,yes,no,300234060375030,SVP-B,unknown,unknown,North